Date String (YYYY-MM-DD hh:mm:ss) UTC,Instrument flags,absolute air pressure of the measurement (hPa),sample flow rate (lpm),inlet stack bypass flow (lpm),air temperature of the measurement (°C),ambient temperature measured by the external sensor (°C),aerosol sample conditioner tube jacket temperature (°C),OPC LED temperature (°C),internal box temperature (°C),relative humidity of the measurement (%),span deviation,mass concentration of particles derived from Lorenz-Mie calculation of OPC scattering (μg/m³),mass concentration of particles derived from Lorenz-Mie calculation of OPC scattering (μg/m³),mass concentration of particles derived from Lorenz-Mie calculation of OPC scattering (μg/m³)
DateTimeUTC,F1_M11,P_M11,Q1_M11,Q2_M11,T1_M11,T2_M11,T3_M11,T4_M11,T5_M11,U1_M11,ZSPAN_M11,X0_M11,X2_M11,X1_M11
2024-03-28 15:00:00,SystemResetWarning,0825.9,5.00,000.00,018.3,017.8,000.0,026.8,020.0,15.1,0000.0,0005.74,0002.06,0001.47
2024-03-28 15:01:00,SystemResetWarning,0826.0,5.01,000.00,018.3,017.8,000.0,026.8,020.0,15.5,0000.0,0005.58,0002.02,0001.45
2024-03-28 15:02:00,SystemResetWarning,0825.9,5.00,000.00,018.3,017.8,000.0,026.8,020.0,15.1,0000.0,0005.59,0002.03,0001.45
2024-03-28 15:03:00,SystemResetWarning,0825.9,5.00,000.00,018.3,017.8,000.0,026.8,020.0,15.4,0000.0,0005.06,0002.04,0001.45
2024-03-28 15:04:00,SystemResetWarning,0825.9,5.01,000.00,018.3,017.8,000.0,026.8,020.0,15.9,0000.0,0004.41,0002.03,0001.43
2024-03-28 15:05:00,SystemResetWarning,0825.9,5.00,000.00,018.3,017.8,000.0,026.8,020.1,16.4,0000.0,0004.53,0002.09,0001.43
2024-03-28 15:06:00,SystemResetWarning,0825.9,5.00,000.00,018.3,017.8,000.0,026.8,020.1,15.7,0000.0,0004.63,0002.10,0001.42
2024-03-28 15:07:00,SystemResetWarning,0825.9,5.00,000.00,018.3,017.8,000.0,026.8,020.1,15.2,0000.0,0004.57,0002.05,0001.41
2024-03-28 15:08:00,SystemResetWarning,0825.9,5.01,000.00,018.3,017.8,000.0,026.8,020.1,15.1,0000.0,0005.42,0002.04,0001.40
2024-03-28 15:09:00,SystemResetWarning,0825.8,5.01,000.00,018.3,017.8,000.0,026.8,020.1,15.4,0000.0,0006.12,0002.04,0001.40
2024-03-28 15:10:00,SystemResetWarning,0825.8,4.99,000.00,018.4,017.9,000.0,026.8,020.1,15.3,0000.0,0005.59,0002.04,0001.40
2024-03-28 15:11:00,SystemResetWarning,0825.7,5.00,000.00,018.4,017.9,000.0,026.8,020.1,15.2,0000.0,0005.15,0002.06,0001.39
2024-03-28 15:12:00,SystemResetWarning,0825.8,5.00,000.00,018.4,017.9,000.0,026.8,020.1,15.3,0000.0,0006.09,0002.14,0001.39
2024-03-28 15:13:00,SystemResetWarning,0825.8,5.00,000.00,018.4,017.9,000.0,026.8,020.1,15.0,0000.0,0006.32,0002.10,0001.38
2024-03-28 15:14:00,SystemResetWarning,0825.8,5.00,000.00,018.4,017.9,000.0,026.8,020.1,14.3,0000.0,0006.18,0002.04,0001.37
2024-03-28 15:15:00,SystemResetWarning,0825.9,5.00,000.00,018.4,017.9,000.0,026.8,020.1,14.6,0000.0,0006.13,0002.04,0001.38
2024-03-28 15:16:00,SystemResetWarning,0825.9,5.00,000.00,018.4,017.9,000.0,026.8,020.1,14.9,0000.0,0006.05,0002.00,0001.38
2024-03-28 15:17:00,SystemResetWarning,0825.8,5.00,000.00,018.4,017.9,000.0,026.8,020.1,15.1,0000.0,0006.03,0002.01,0001.39
2024-03-28 15:18:00,SystemResetWarning,0825.8,5.00,000.00,018.4,017.9,000.0,026.8,020.1,15.0,0000.0,0006.05,0002.06,0001.41
2024-03-28 15:19:00,SystemResetWarning,0825.8,4.99,000.00,018.4,017.9,000.0,026.8,020.1,15.1,0000.0,0005.71,0002.13,0001.41
2024-03-28 15:20:00,SystemResetWarning,0825.7,5.00,000.00,018.4,017.9,000.0,026.8,020.1,15.5,0000.0,0005.97,0002.16,0001.41
2024-03-28 15:21:00,SystemResetWarning,0825.7,5.01,000.00,018.4,018.0,000.0,026.8,020.2,15.5,0000.0,0006.22,0002.14,0001.42
2024-03-28 15:22:00,SystemResetWarning,0825.7,5.01,000.00,018.4,018.0,000.0,026.9,020.2,16.2,0000.0,0006.00,0002.09,0001.42
2024-03-28 15:23:00,SystemResetWarning,0825.7,5.00,000.00,018.4,018.0,000.0,026.9,020.2,16.0,0000.0,0005.04,0001.99,0001.42
2024-03-28 15:24:00,SystemResetWarning,0825.7,4.99,000.00,018.5,018.0,000.0,026.9,020.2,16.0,0000.0,0004.69,0001.98,0001.43
2024-03-28 15:25:00,SystemResetWarning,0825.7,4.99,000.00,018.5,018.0,000.0,026.9,020.2,16.1,0000.0,0004.75,0002.01,0001.42
2024-03-28 15:26:00,SystemResetWarning,0825.7,5.00,000.00,018.5,018.0,000.0,026.9,020.2,15.7,0000.0,0004.69,0001.97,0001.41
2024-03-28 15:27:00,SystemResetWarning,0825.7,5.00,000.00,018.5,018.0,000.0,026.9,020.2,16.0,0000.0,0004.67,0001.96,0001.40
2024-03-28 15:28:00,SystemResetWarning,0825.7,5.01,000.00,018.5,018.0,000.0,026.9,020.2,16.0,0000.0,0004.67,0001.96,0001.39
2024-03-28 15:29:00,SystemResetWarning,0825.8,5.01,000.00,018.5,018.0,000.0,026.9,020.2,16.1,0000.0,0004.66,0001.94,0001.38
2024-03-28 15:30:00,SystemResetWarning,0825.8,5.00,000.00,018.5,018.0,000.0,026.9,020.2,16.4,0000.0,0004.47,0001.88,0001.39
2024-03-28 15:31:00,SystemResetWarning,0825.8,5.00,000.00,018.5,018.0,000.0,026.9,020.2,15.7,0000.0,0003.19,0001.88,0001.40
2024-03-28 15:32:00,SystemResetWarning,0825.8,5.00,000.00,018.5,018.0,000.0,026.9,020.3,15.6,0000.0,0003.71,0001.89,0001.40
2024-03-28 15:33:00,SystemResetWarning,0825.7,5.00,000.00,018.5,018.1,000.0,026.9,020.3,15.4,0000.0,0004.80,0001.92,0001.40
2024-03-28 15:34:00,SystemResetWarning,0825.8,5.00,000.00,018.5,018.1,000.0,026.9,020.3,15.9,0000.0,0006.71,0001.98,0001.40
2024-03-28 15:35:00,SystemResetWarning,0825.7,4.99,000.00,018.6,018.1,000.0,026.9,020.3,15.9,0000.0,0007.19,0001.98,0001.40
2024-03-28 15:36:00,SystemResetWarning,0825.8,5.00,000.00,018.6,018.1,000.0,026.9,020.3,15.7,0000.0,0007.21,0002.00,0001.42
2024-03-28 15:37:00,SystemResetWarning,0825.7,5.01,000.00,018.6,018.1,000.0,026.9,020.3,15.1,0000.0,0007.24,0002.02,0001.43
2024-03-28 15:38:00,SystemResetWarning,0825.7,5.01,000.00,018.6,018.1,000.0,026.9,020.3,14.7,0000.0,0007.27,0002.03,0001.43
2024-03-28 15:39:00,SystemResetWarning,0825.7,5.01,000.00,018.6,018.2,000.0,027.0,020.3,14.2,0000.0,0007.26,0002.02,0001.42
2024-03-28 15:40:00,SystemResetWarning,0825.6,5.00,000.00,018.6,018.2,000.0,027.0,020.3,14.2,0000.0,0007.21,0002.00,0001.42
2024-03-28 15:41:00,SystemResetWarning,0825.6,4.99,000.00,018.6,018.2,000.0,027.0,020.4,15.5,0000.0,0007.14,0001.98,0001.42
2024-03-28 15:42:00,SystemResetWarning,0825.7,4.99,000.00,018.6,018.2,000.0,027.0,020.4,15.4,0000.0,0007.11,0001.95,0001.40
2024-03-28 15:43:00,SystemResetWarning,0825.7,5.01,000.00,018.7,018.2,000.0,027.0,020.4,15.5,0000.0,0006.33,0001.94,0001.39
2024-03-28 15:44:00,SystemResetWarning,0825.8,5.01,000.00,018.7,018.2,000.0,027.0,020.4,15.1,0000.0,0005.29,0001.96,0001.40
2024-03-28 15:45:00,SystemResetWarning,0825.8,5.01,000.00,018.7,018.2,000.0,027.0,020.4,15.2,0000.0,0003.44,0001.93,0001.41
2024-03-28 15:46:00,SystemResetWarning,0825.8,5.00,000.00,018.7,018.3,000.0,027.0,020.4,15.3,0000.0,0003.03,0001.96,0001.42
2024-03-28 15:47:00,SystemResetWarning,0825.8,5.00,000.00,018.7,018.3,000.0,027.0,020.4,15.4,0000.0,0003.19,0002.01,0001.42
2024-03-28 15:48:00,SystemResetWarning,0825.8,5.00,000.00,018.7,018.3,000.0,027.0,020.5,15.0,0000.0,0003.21,0002.01,0001.42
2024-03-28 15:49:00,SystemResetWarning,0825.8,5.00,000.00,018.7,018.3,000.0,027.1,020.5,14.8,0000.0,0004.33,0002.03,0001.42
2024-03-28 15:50:00,SystemResetWarning,0825.8,5.00,000.00,018.7,018.3,000.0,027.1,020.5,15.6,0000.0,0005.08,0002.04,0001.42
2024-03-28 15:51:00,SystemResetWarning,0825.8,4.99,000.00,018.8,018.3,000.0,027.1,020.5,16.1,0000.0,0005.68,0002.09,0001.43
2024-03-28 15:52:00,SystemResetWarning,0825.8,4.99,000.00,018.8,018.3,000.0,027.1,020.5,16.8,0000.0,0005.69,0002.08,0001.43
2024-03-28 15:53:00,SystemResetWarning,0825.8,4.99,000.00,018.8,018.3,000.0,027.1,020.5,16.9,0000.0,0006.14,0002.12,0001.45
2024-03-28 15:54:00,SystemResetWarning,0825.8,5.00,000.00,018.8,018.4,000.0,027.1,020.5,16.4,0000.0,0006.15,0002.14,0001.46
2024-03-28 15:55:00,SystemResetWarning,0825.8,5.01,000.00,018.8,018.4,000.0,027.1,020.6,16.8,0000.0,0006.18,0002.13,0001.45
2024-03-28 15:56:00,SystemResetWarning,0825.8,5.00,000.00,018.8,018.4,000.0,027.1,020.6,17.1,0000.0,0006.12,0002.11,0001.44
2024-03-28 15:57:00,SystemResetWarning,0825.9,5.01,000.00,018.8,018.5,000.0,027.2,020.6,16.4,0000.0,0006.21,0002.12,0001.43
2024-03-28 15:58:00,SystemResetWarning,0825.9,5.00,000.00,018.9,018.5,000.0,027.2,020.6,16.6,0000.0,0006.27,0002.10,0001.42
2024-03-28 15:59:00,SystemResetWarning,0825.9,4.99,000.00,018.9,018.5,000.0,027.2,020.6,16.6,0000.0,0006.30,0002.09,0001.42
